Regional Weather Roundup
Issued by NWS

Home | Current Version | Previous Version | Graphics & Text | Print | Product List | Glossary On
Versions: 1 2 3 4 5 6 7 8 9 10 11 12 13 14 15 16 17 18 19 20 21 22 23 24 25 26 27 28 29 30 31 32 33 34 35 36 37 38 39 40 41 42 43 44 45 46 47 48 49 50
000
ASUS43 KBIS 260510
RWRND

NORTH DAKOTA REGIONAL WEATHER ROUNDUP
NATIONAL WEATHER SERVICE BISMARCK ND
1100 PM CST SUN JAN 25 2015

NOTE: "FAIR" INDICATES FEW OR NO CLOUDS BELOW 12,000 FEET WITH NO
SIGNIFICANT WEATHER AND/OR OBSTRUCTIONS TO VISIBILITY.


NDZ001>003-009>011-017-260600-
NORTHWEST NORTH DAKOTA

CITY           SKY/WX    TMP DP  RH WIND       PRES   REMARKS
WILLISTON      MOCLDY    43  34  70 W9G21     29.83R
MINOT          CLEAR     40  32  73 W18       29.69R
MINOT AFB      PTCLDY    38  37  98 W16       29.68R
$$

NDZ018>021-031>035-040>046-260600-
SOUTHWEST NORTH DAKOTA

CITY           SKY/WX    TMP DP  RH WIND       PRES   REMARKS
BISMARCK       PTCLDY    35  30  82 CALM      29.78F
DICKINSON      PTCLDY    42  34  73 W21       29.81S
GARRISON         N/A     38  33  82 W14       29.73F
HETTINGER ARPT MOCLDY    40  34  79 W17       29.86S
$$

NDZ004>008-012>016-024-026-027-054-260600-
NORTHEAST NORTH DAKOTA

CITY           SKY/WX    TMP DP  RH WIND       PRES   REMARKS
GRAND FORKS    CLOUDY    28  24  85 S18G31    29.67F WCI  15
GRND FRKS AFB  CLOUDY    28  25  86 SW23G30   29.63F WCI  14
DEVILS LAKE    MOCLDY    36  32  87 W20G28    29.64F
$$

NDZ022-023-025-028>030-036>039-047>053-260600-
SOUTHEAST NORTH DAKOTA

CITY           SKY/WX    TMP DP  RH WIND       PRES   REMARKS
FARGO          CLOUDY    28  22  78 S15       29.81F WCI  16
JAMESTOWN      MOCLDY    30  27  88 S9        29.71F
$$



USA.gov is the U.S. government's official web portal to all federal, state and local government web resources and services.